Miscellaneous Local Product
Issued by NWS Hastings, NE

Home | Current Version | Previous Version | Text Only | Print | Product List | Glossary On
Versions: 1 2 3 4 5 6 7 8 9 10 11 12 13 14 15 16 17 18 19 20 21 22 23 24 25 26 27 28 29 30 31 32 33 34 35 36 37 38 39 40 41 42 43 44 45 46 47 48 49 50
000
AXUS43 KGID 231402
MISGRI

GID CWA HOURLY WEATHER ROUNDUP
NATIONAL WEATHER SERVICE HASTINGS NE
800 AM CST TUE JAN 23 2018

NOTE: "FAIR" INDICATES FEW OR NO CLOUDS BELOW 12,000 FEET WITH NO
SIGNIFICANT WEATHER AND/OR OBSTRUCTIONS TO VISIBILITY.

...SOUTH CENTRAL NEBRASKA...

CITY           SKY/WX    TMP DP  RH WIND       PRES   REMARKS
GRAND ISLAND   CLOUDY    15  11  83 W10       30.11R WCI   2
KEARNEY        CLEAR     15  12  88 NW12      30.12R WCI   2
HASTINGS       CLEAR     18  12  77 NW12      30.11R WCI   5
ORD            CLEAR      7   5  91 NW7       30.10R WCI  -5
YORK           CLOUDY    18  18 100 NW6       30.12R FOG     WCI   9
AURORA           N/A     11   9  91 NW8       30.11R WCI  -1
LEXINGTON      CLEAR     14   9  79 W12       30.13R WCI   0
HOLDREGE       CLOUDY    18  13  84 NW5       30.12S WCI  11
HEBRON         CLOUDY    15  13  92 W3        30.15R

...NEBRASKA PANHANDLE...

CITY           SKY/WX    TMP DP  RH WIND       PRES   REMARKS
CHADRON        PTCLDY    21  17  84 W8        30.16R WCI  11
ALLIANCE       CLEAR     15  13  91 MISG      30.12S
SCOTTSBLUFF    CLEAR     22  15  75 W13       30.16R WCI  10
SIDNEY         CLEAR     24  16  71 NW15G25   30.15R WCI  11

...WESTERN AND NORTH CENTRAL NEBRASKA...

CITY           SKY/WX    TMP DP  RH WIND       PRES   REMARKS
VALENTINE      CLOUDY    23  17  78 W8        30.09S WCI  14
AINSWORTH      PTCLDY    21  18  88 W9        30.08S WCI  11
ONEILL         CLEAR     11  10  95 W6        30.08F WCI   2
BROKEN BOW     PTCLDY    22  13  68 NW16      30.09S WCI   8
IMPERIAL       PTCLDY    20  15  81 W10       30.16R WCI   9
NORTH PLATTE   MOCLDY     9   4  80 NW6       30.14R WCI  -1
MCCOOK         CLOUDY    22  15  75 NW10      30.15S WCI  11

...EASTERN NEBRASKA...

CITY           SKY/WX    TMP DP  RH WIND       PRES   REMARKS
NORFOLK        FLURRIES  25  19  78 NW13      30.09R WCI  14
SO SIOUX CITY  CLOUDY    22  20  92 NW15      30.10R WCI   9
TEKAMAH        CLOUDY    23  21  92 N17       30.11R WCI   9
COLUMBUS       CLOUDY    20  19  96 NW12      30.13R WCI   8
ALBION         CLOUDY    21  20  93 NW10      30.09S WCI  10
OMAHA EPPLEY   CLOUDY    24  20  84 NW15      30.12R WCI  11
OFFUTT AFB     CLOUDY    24  20  84 N9        30.11R WCI  14
MILLARD        CLOUDY    24  20  85 NW12      30.13R WCI  13
LINCOLN        CLOUDY    23  19  85 N10       30.14R WCI  12
NEBRASKA CITY  CLOUDY    24  24 100 N12       30.11S WCI  13
BEATRICE       CLOUDY    25  22  89 NW14      30.13R WCI  13
FALLS CITY     CLOUDY    25  21  85 NW13      30.12R WCI  14

...NORTHERN KANSAS...

CITY           SKY/WX    TMP DP  RH WIND       PRES   REMARKS
GOODLAND       CLEAR     16  10  77 W14       30.16R WCI   2
HILL CITY      CLEAR     21  14  74 W9        30.17R WCI  11
NORTON         SUNNY     19  10  68 W15       30.14S WCI   5
PHILLIPSBURG   CLEAR     19  12  73 NW10      30.17S WCI   8
SMITH CENTER   CLEAR     16  12  86 W9        30.16R WCI   4
HAYS           CLOUDY    20  14  77 NW10      30.18R WCI   9
RUSSELL        CLOUDY    20  15  81 W9        30.16R WCI   9
CONCORDIA      CLEAR     15  13  91 NW5       30.14R WCI   8
SALINA         CLEAR     21  18  88 W8        30.18R WCI  11
TOPEKA         CLOUDY    26  22  84 W12       30.16R WCI  16



USA.gov is the U.S. government's official web portal to all federal, state and local government web resources and services.